FW8254 Weather Reports


time (UTC)temp
F
wind
direction
speed
knots
gust
knots
rain 1hr
in
rain 24hr
in
rain mn
in
humidity
%
barometer
mb
20260507235000 75 262 6.1 9.6 0.00 1.56 1.56 65 1004.4
20260507234456 75 286 7.0 8.7 0.00 1.56 1.56 65 1004.4
20260507233953 75 294 6.1 9.6 0.00 1.56 1.56 65 1004.2
20260507233450 75 288 7.0 11.3 0.00 1.56 1.56 65 1004.2
20260507232948 76 287 6.1 9.6 0.00 1.56 1.56 66 1004.3
20260507232444 76 278 7.8 9.6 0.00 1.56 1.56 64 1004.1
20260507231942 76 284 7.8 9.6 0.00 1.56 1.56 65 1004.2
20260507231438 76 277 9.6 13.0 0.00 1.56 1.56 63 1004.3
20260507230935 76 287 9.6 13.0 0.00 1.56 1.56 63 1004.2
20260507230432 77 295 10.4 13.0 0.00 1.56 1.56 64 1004.2
20260507225932 77 284 7.0 13.9 0.00 1.56 1.56 63 1004.0
20260507225428 77 284 7.8 11.3 0.00 1.56 1.56 64 1004.1
20260507224925 77 282 5.2 9.6 0.00 1.56 1.56 63 1004.0
20260507224421 77 284 9.6 13.0 0.00 1.56 1.56 63 1003.9
20260507223918 77 284 7.0 17.4 0.00 1.56 1.56 64 1003.9
20260507223414 77 269 11.3 18.2 0.00 1.56 1.56 65 1003.9
20260507222911 77 224 9.6 12.2 0.00 1.56 1.56 66 1004.0
20260507222408 77 263 12.2 17.4 0.00 1.56 1.56 64 1004.0
20260507221905 77 227 8.7 13.9 0.00 1.56 1.56 65 1004.0
20260507221401 78 286 11.3 14.8 0.00 1.56 1.56 65 1003.6
20260507220857 77 262 6.1 12.2 0.00 1.56 1.56 65 1003.8
20260507220355 77 277 8.7 12.2 0.00 1.56 1.56 67 1003.6
20260507215851 77 271 6.1 13.0 0.00 1.56 1.56 65 1003.9
20260507215348 77 232 7.8 12.2 0.00 1.56 1.56 68 1003.8
20260507214845 77 254 7.0 7.8 0.00 1.56 1.56 68 1003.6
20260507214343 77 286 6.1 7.8 0.00 1.56 1.56 70 1003.7
20260507213838 77 280 7.0 7.0 0.00 1.56 1.56 68 1003.8
20260507213335 77 288 7.0 7.8 0.00 1.56 1.56 69 1003.5
20260507212831 77 291 8.7 12.2 0.00 1.56 1.56 68 1003.6
20260507212327 77 281 8.7 9.6 0.00 1.56 1.56 69 1003.7
20260507211824 77 276 6.1 12.2 0.00 1.56 1.56 69 1003.6
20260507211321 77 246 7.8 12.2 0.00 1.56 1.56 69 1003.7
20260507210818 77 277 7.0 7.8 0.00 1.56 1.56 70 1003.5
20260507210315 77 238 6.1 7.8 0.00 1.56 1.56 69 1003.8
20260507205811 77 248 7.0 12.2 0.00 1.56 1.56 70 1003.6
20260507205308 77 279 4.3 5.2 0.00 1.56 1.56 70 1003.5
20260507204804 77 251 5.2 11.3 0.00 1.56 1.56 69 1003.6
20260507204302 77 303 5.2 7.8 0.00 1.56 1.56 69 1003.6
20260507203800 77 280 7.8 9.6 0.00 1.56 1.56 68 1003.7
20260507203258 77 296 4.3 8.7 0.00 1.56 1.56 68 1003.6
20260507202753 76 294 4.3 9.6 0.00 1.56 1.56 68 1003.8
20260507202249 76 284 5.2 7.8 0.00 1.56 1.56 70 1003.9
20260507201744 76 282 7.8 11.3 0.00 1.56 1.56 69 1004.3
20260507201241 76 284 12.2 17.4 0.00 1.56 1.56 70 1004.4
20260507200737 76 281 8.7 13.0 0.00 1.56 1.56 68 1004.4
20260507200228 76 283 8.7 9.6 0.00 1.56 1.56 68 1004.4
20260507195724 76 264 8.7 13.9 0.00 1.56 1.56 70 1004.3
20260507195221 75 275 12.2 15.6 0.00 1.56 1.56 71 1004.3
20260507194719 75 289 8.7 9.6 0.00 1.56 1.56 72 1004.3
20260507194215 75 286 7.8 13.0 0.00 1.56 1.56 72 1004.4
20260507193712 75 273 8.7 14.8 0.00 1.56 1.56 73 1004.3
20260507193208 75 296 6.1 11.3 0.00 1.56 1.56 74 1004.2
20260507192704 74 289 7.0 9.6 0.00 1.56 1.56 74 1004.7
20260507192202 74 277 7.0 9.6 0.00 1.56 1.56 75 1004.5
20260507191657 74 277 7.0 12.2 0.00 1.56 1.56 75 1004.5
20260507191154 75 295 9.6 11.3 0.00 1.56 1.56 76 1004.3
20260507190651 74 277 6.1 13.0 0.00 1.56 1.56 77 1004.2
20260507190150 74 297 7.0 8.7 0.00 1.56 1.56 78 1004.4
20260507185648 74 278 8.7 13.9 0.00 1.56 1.56 77 1004.4
20260507185144 73 317 4.3 7.8 0.00 1.56 1.56 78 1004.3
20260507184642 73 287 7.0 7.8 0.00 1.56 1.56 81 1004.6
20260507184140 73 279 6.1 7.0 0.00 1.56 1.56 79 1004.0
20260507183636 73 289 7.0 9.6 0.00 1.56 1.56 81 1004.2
20260507183133 73 287 5.2 7.8 0.00 1.56 1.56 83 1004.3
20260507182629 73 282 5.2 6.1 0.00 1.56 1.56 83 1004.2
20260507182126 72 294 6.1 6.1 0.00 1.56 1.56 83 1004.2
20260507181622 72 285 2.6 5.2 0.00 1.56 1.56 85 1004.5
20260507181118 71 281 6.1 13.9 0.00 1.56 1.56 85 1004.8
20260507180615 71 286 6.1 11.3 0.00 1.56 1.56 85 1004.7
20260507180112 71 270 8.7 8.7 0.00 1.56 1.56 86 1004.8
20260507175608 70 285 7.8 9.6 0.00 1.56 1.56 87 1004.9
20260507175106 71 296 4.3 5.2 0.00 1.56 1.56 88 1004.7
20260507174602 70 296 7.0 7.8 0.00 1.56 1.56 87 1004.8
20260507174100 70 285 6.1 8.7 0.00 1.56 1.56 88 1004.4
20260507173557 70 314 3.5 4.3 0.00 1.56 1.56 90 1004.2
20260507173054 69 298 4.3 5.2 0.00 1.56 1.56 92 1004.1
20260507172550 69 308 4.3 5.2 0.00 1.56 1.56 94 1004.5
20260507172047 69 316 3.5 5.2 0.00 1.56 1.56 95 1004.5
20260507171542 69 325 2.6 2.6 0.00 1.56 1.56 96 1004.5
20260507171040 69 296 4.3 6.1 0.00 1.56 1.56 96 1004.7
20260507170536 69 1 1.7 2.6 0.00 1.56 1.56 97 1004.9
20260507170034 68 19 0.9 0.9 0.00 1.56 1.56 97 1004.7
20260507165529 68 325 2.6 4.3 0.00 1.56 1.56 97 1004.9
20260507165026 68 34 0.9 2.6 0.00 1.56 1.56 97 1004.9
20260507164522 68 308 3.5 5.2 0.00 1.56 1.56 97 1005.1
20260507164019 68 357 3.5 5.2 0.00 1.56 1.56 97 1005.4
20260507163516 69 321 2.6 4.3 0.00 1.56 1.56 97 1005.5
20260507163015 68 345 2.6 5.2 0.00 1.56 1.56 98 1005.5
20260507162509 68 335 2.6 5.2 0.00 1.56 1.56 98 1005.2
20260507162006 68 3 1.7 2.6 0.00 1.56 1.56 98 1005.3
20260507161502 68 24 0.9 1.7 0.00 1.56 1.56 98 1005.4
20260507160959 68 300 2.6 2.6 0.00 1.56 1.56 98 1005.5
20260507160455 68 14 0.0 0.9 0.00 1.56 1.56 98 1005.3
20260507155951 67 29 0.9 0.9 0.05 1.56 1.56 98 1005.6
20260507155447 67 27 0.0 0.9 0.07 1.55 1.55 98 1005.7
20260507154944 67 35 0.9 0.9 0.07 1.55 1.55 98 1005.8
20260507154441 67 43 0.0 0.0 0.00 1.54 1.54 98 1005.5
20260507153938 67 5 1.7 2.6 0.00 1.54 1.54 98 1005.9
20260507153435 67 17 0.9 0.9 0.00 1.54 1.54 98 1005.7
20260507152931 67 39 0.0 0.0 0.00 1.54 1.54 98 1005.1
20260507152427 67 46 0.0 0.9 0.00 1.54 1.54 98 1004.7
20260507151923 67 44 0.0 0.9 0.00 1.54 1.54 98 1004.8
20260507151420 66 50 0.0 0.9 0.00 1.54 1.54 98 1005.1
20260507150917 66 44 0.0 0.0 0.00 1.54 1.54 98 1005.5
20260507150414 66 45 0.0 0.0 0.00 1.54 1.54 98 1005.5
20260507145910 66 45 0.0 0.0 0.00 1.54 1.54 98 1005.5
20260507145406 66 45 0.0 0.0 0.05 1.54 1.54 98 1005.6
20260507144903 66 50 0.0 0.9 0.00 1.53 1.53 98 1005.5
20260507144400 66 50 0.0 0.9 0.07 1.53 1.53 98 1005.4
20260507143857 66 48 0.0 0.0 0.07 1.53 1.53 98 1005.5
20260507143354 66 37 0.0 0.0 0.00 1.52 1.52 98 1006.1
20260507142851 66 44 0.0 0.9 0.17 1.52 1.52 97 1006.1
20260507142347 66 40 0.9 1.7 0.50 1.51 1.51 97 1006.3
20260507141844 66 72 2.6 2.6 0.90 1.48 1.48 97 1006.4
20260507141340 67 26 0.9 1.7 1.63 1.42 1.42 98 1006.0
20260507140837 67 32 0.9 1.7 1.91 1.31 1.31 98 1006.1
20260507140334 67 29 0.9 0.9 1.32 1.12 1.12 98 1006.0
20260507135832 67 31 0.0 0.9 1.25 0.97 0.97 97 1005.5
20260507135328 67 33 0.0 0.0 0.90 0.87 0.87 98 1005.5
20260507134826 67 21 0.0 0.9 0.31 0.76 0.76 97 1005.5
20260507134321 67 25 0.9 0.9 0.07 0.72 0.72 98 1005.5
20260507133817 67 25 0.9 1.7 0.00 0.71 0.71 97 1005.4
20260507133313 67 303 2.6 5.2 0.00 0.71 0.71 98 1005.5
20260507132812 67 324 2.6 2.6 0.00 0.71 0.71 98 1005.2
20260507132308 67 26 0.0 1.7 0.00 0.71 0.71 98 1005.3
20260507131805 67 49 0.0 0.9 0.00 0.71 0.71 98 1005.1
20260507131302 67 48 0.0 0.0 0.00 0.71 0.71 97 1005.6
20260507130758 67 49 0.9 0.9 0.78 0.71 0.71 97 1005.3
20260507130256 67 45 0.0 0.0 0.78 0.71 0.71 97 1005.5
20260507125755 67 45 0.0 0.0 0.00 0.58 0.58 97 1005.4
20260507125252 67 45 0.0 0.0 0.05 0.58 0.58 97 1005.5
20260507124749 67 45 0.0 0.0 0.12 0.58 0.58 97 1005.7
20260507124245 67 44 0.0 0.0 0.07 0.57 0.57 97 1006.0
20260507123744 67 45 0.0 0.0 0.00 0.56 0.56 97 1005.7
20260507123241 67 45 0.0 0.0 0.00 0.56 0.56 97 1005.7
20260507122736 67 44 0.0 0.0 0.00 0.56 0.56 97 1005.6
20260507122232 67 44 0.0 0.0 0.00 0.56 0.56 97 1005.7
20260507121728 67 44 0.0 0.9 0.00 0.56 0.56 97 1004.9
20260507121224 67 40 0.0 0.0 0.00 0.56 0.56 97 1005.0
20260507120720 67 40 0.0 0.0 0.00 0.56 0.56 97 1004.9
20260507120218 67 40 0.0 0.0 0.00 0.56 0.56 97 1004.9
20260507115714 67 40 0.0 0.0 0.00 0.56 0.56 97 1004.8
20260507115209 66 39 0.0 0.0 0.00 0.56 0.56 97 1004.9
20260507114705 66 40 0.0 0.0 0.00 0.56 0.56 97 1005.0
20260507114203 66 44 0.0 0.0 0.00 0.56 0.56 97 1004.9
20260507113700 66 33 0.0 0.9 0.00 0.56 0.56 97 1005.1
20260507113157 66 34 0.0 0.0 0.05 0.56 0.56 97 1004.7
20260507112655 66 54 0.0 0.9 0.05 0.56 0.56 97 1004.7
20260507112151 66 47 0.0 0.9 0.00 0.55 0.55 97 1005.2
20260507111649 66 347 1.7 2.6 0.00 0.55 0.55 97 1005.4
20260507111145 66 37 0.0 0.9 0.07 0.55 0.55 97 1005.8
20260507110641 66 37 0.9 1.7 0.12 0.55 0.55 97 1006.0
20260507110138 67 1 1.7 2.6 0.05 0.54 0.54 97 1006.1
20260507105635 67 291 3.5 5.2 0.24 0.53 0.53 97 1006.2
20260507105131 67 299 2.6 2.6 0.42 0.53 0.53 97 1006.0
20260507104629 67 10 0.9 1.7 0.47 0.48 0.48 97 1006.1
20260507104125 67 300 4.3 5.2 0.90 0.46 0.46 97 1006.8
20260507103621 67 299 3.5 7.0 0.66 0.40 0.40 97 1006.8
20260507103118 67 50 1.7 2.6 0.28 0.30 0.30 97 1006.5
20260507102614 67 318 1.7 2.6 0.50 0.29 0.29 97 1006.5
20260507102110 67 59 0.9 0.9 0.35 0.24 0.24 97 1006.5
20260507101607 67 23 1.7 2.6 0.24 0.20 0.20 97 1006.4
20260507101102 67 30 0.0 0.0 0.31 0.18 0.18 97 1006.3
20260507100600 67 35 0.0 0.0 0.17 0.15 0.15 97 1006.4
20260507100058 67 41 0.0 0.0 0.00 0.12 0.12 97 1006.0
20260507095556 67 41 0.0 0.0 0.00 0.12 0.12 97 1006.1
20260507095052 67 41 0.0 0.0 0.00 0.12 0.12 97 1006.3
20260507094548 67 41 0.0 0.0 0.00 0.12 0.12 97 1006.3
20260507094046 67 40 0.0 0.0 0.00 0.12 0.12 97 1006.3
20260507093543 67 41 0.0 0.0 0.00 0.12 0.12 97 1006.0
20260507093042 66 40 0.0 0.0 0.00 0.12 0.12 97 1006.2
20260507092537 67 40 0.0 0.0 0.00 0.12 0.12 97 1006.5
20260507092034 67 40 0.0 0.0 0.00 0.12 0.12 97 1006.8
20260507091531 67 40 0.0 0.0 0.00 0.12 0.12 97 1006.7
20260507091027 66 30 0.0 0.0 0.00 0.12 0.12 97 1006.7
20260507090523 67 30 0.0 0.0 0.07 0.12 0.12 97 1006.5
20260507090020 67 30 0.0 0.0 0.07 0.12 0.12 97 1006.5
20260507085517 67 28 0.0 0.9 0.00 0.11 0.11 97 1006.7
20260507085014 67 25 0.9 0.9 0.00 0.11 0.11 97 1006.9
20260507084510 67 12 0.9 1.7 0.00 0.11 0.11 97 1006.8
20260507084008 67 16 1.7 1.7 0.00 0.11 0.11 97 1006.8
20260507083504 67 21 0.9 1.7 0.07 0.11 0.11 97 1006.5
20260507083001 67 328 2.6 2.6 0.00 0.10 0.10 97 1006.7
20260507082457 67 15 0.9 1.7 0.00 0.10 0.10 97 1006.4
20260507081953 67 8 0.9 1.7 0.00 0.10 0.10 97 1006.5
20260507081449 67 12 1.7 1.7 0.00 0.10 0.10 97 1006.4
20260507080947 67 353 1.7 1.7 0.00 0.10 0.10 97 1006.3
20260507080443 67 16 0.9 0.9 0.00 0.10 0.10 97 1006.2
20260507075938 67 351 1.7 1.7 0.00 0.10 0.10 97 1006.4
20260507075435 67 33 0.0 1.7 0.00 0.10 0.10 97 1006.4
20260507074931 67 32 0.9 1.7 0.00 0.10 0.10 97 1006.6
20260507074428 67 339 1.7 2.6 0.00 0.10 0.10 97 1006.5
20260507073926 66 9 0.9 1.7 0.00 0.10 0.10 97 1006.6
20260507073422 67 35 0.0 2.6 0.00 0.10 0.10 97 1006.6
20260507072919 66 43 0.0 0.9 0.00 0.10 0.10 97 1006.6
20260507072416 66 32 0.0 0.9 0.00 0.10 0.10 97 1006.6
20260507071914 66 33 0.0 0.0 0.00 0.10 0.10 97 1006.4
20260507071411 66 34 0.0 0.0 0.00 0.10 0.10 97 1006.5
20260507070907 66 34 0.0 0.0 0.00 0.10 0.10 97 1006.7
20260507070405 67 34 0.0 0.0 0.00 0.10 0.10 97 1006.6
20260507065901 67 34 0.0 0.0 0.00 0.10 0.10 97 1006.6
20260507065358 67 34 0.0 0.0 0.00 0.10 0.10 97 1006.7
20260507064855 67 17 0.9 0.9 0.00 0.10 0.10 97 1006.8
20260507064353 67 24 0.9 0.9 0.00 0.10 0.10 97 1006.8
20260507063851 67 18 0.9 1.7 0.00 0.10 0.10 97 1007.1
20260507063348 67 28 0.0 0.0 0.00 0.10 0.10 97 1006.9
20260507062844 67 22 0.9 0.9 0.00 0.10 0.10 97 1006.8
20260507062341 67 40 0.0 0.0 0.00 0.10 0.10 97 1006.7
20260507061839 67 41 0.0 0.0 0.00 0.10 0.10 97 1006.7
20260507061337 67 41 0.0 0.0 0.00 0.10 0.10 97 1006.8
20260507060835 67 41 0.0 0.0 0.00 0.10 0.10 97 1006.7
20260507060332 67 41 0.0 0.0 0.00 0.10 0.10 97 1006.8
20260507055828 67 41 0.0 0.0 0.00 0.10 0.10 96 1006.6
20260507055323 67 41 0.0 0.0 0.00 0.10 0.10 96 1006.4
20260507054820 67 41 0.0 0.0 0.00 0.10 0.10 96 1006.7
20260507054316 67 41 0.0 0.0 0.00 0.10 0.10 96 1006.8
20260507053814 67 41 0.0 0.0 0.00 0.10 0.10 96 1006.8
20260507053312 67 43 0.0 0.0 0.00 0.10 0.10 96 1006.8
20260507052811 67 44 0.0 0.9 0.00 0.10 0.10 96 1006.6
20260507052307 67 42 0.0 0.9 0.00 0.10 0.10 96 1006.9
20260507051805 67 76 0.0 1.7 0.00 0.10 0.10 96 1006.8
20260507051302 67 54 0.0 0.9 0.00 0.10 0.10 96 1006.7
20260507050759 68 61 0.0 0.9 0.00 0.10 0.10 96 1007.0
20260507050255 68 61 0.0 0.9 0.00 0.10 0.10 96 1007.2
20260507045752 68 61 0.0 0.9 0.00 0.10 0.10 95 1007.5
20260507045249 68 61 0.0 0.9 0.00 0.10 0.10 95 1007.1
20260507044746 68 61 0.0 0.9 0.00 0.10 0.10 95 1007.3
20260507044242 68 61 0.0 0.9 0.00 0.10 0.10 95 1007.3
20260507043738 68 61 0.0 1.7 0.00 0.10 0.10 95 1007.5
20260507043235 68 61 0.9 0.9 0.00 0.10 0.10 95 1007.5
20260507042731 68 62 0.9 1.7 0.00 0.10 0.10 94 1007.5
20260507042226 68 68 0.9 1.7 0.12 0.10 0.10 94 1007.9
20260507041724 68 79 0.9 1.7 0.17 0.10 0.10 94 1008.1
20260507041220 68 52 0.0 0.0 0.40 0.08 0.08 94 1008.3
20260507040717 68 53 0.0 0.0 0.54 0.07 0.07 93 1008.5
20260507040213 68 58 0.0 0.0 0.31 0.01 0.01 93 1008.7
20260507035709 68 58 0.0 0.0 0.19 0.56 0.56 93 1008.5
20260507035205 68 59 0.9 0.9 0.12 0.54 0.54 93 1008.5
20260507034702 68 56 0.0 0.0 0.17 0.53 0.53 92 1008.7
20260507034200 68 56 0.0 0.0 0.19 0.52 0.52 92 1009.2
20260507033658 68 58 0.0 0.9 0.12 0.50 0.50 92 1008.9
20260507033155 68 57 0.0 0.0 0.17 0.49 0.49 91 1008.9
20260507032652 69 57 0.0 0.9 0.24 0.48 0.48 91 1008.8
20260507032148 69 56 0.0 0.0 0.26 0.46 0.46 91 1009.2
20260507031645 69 55 0.0 0.0 0.19 0.44 0.44 91 1009.4
20260507031141 69 58 0.0 0.9 0.24 0.42 0.42 90 1009.6
20260507030638 69 37 0.0 0.0 0.35 0.41 0.41 90 1010.3
20260507030136 69 355 1.7 1.7 0.28 0.38 0.38 90 1010.5
20260507025633 69 33 0.0 0.0 0.38 0.35 0.35 90 1010.5
20260507025130 69 40 0.0 0.0 0.31 0.33 0.33 89 1009.8
20260507024628 69 33 0.0 1.7 0.24 0.29 0.29 88 1010.2
20260507024125 69 44 0.0 1.7 0.31 0.28 0.28 88 1010.1
20260507023620 69 285 3.5 6.1 0.35 0.25 0.25 86 1010.1
20260507023118 69 291 5.2 7.0 1.02 0.23 0.23 84 1010.0
20260507022615 71 257 7.0 8.7 0.97 0.19 0.19 82 1010.1
20260507022110 73 338 2.6 8.7 0.31 0.06 0.06 77 1010.0
20260507021607 74 298 4.3 4.3 0.17 0.03 0.03 72 1008.7
20260507021103 77 25 0.9 0.9 0.05 0.01 0.01 66 1007.6
20260507020601 79 24 0.9 0.9 0.00 0.00 0.00 58 1007.4
20260507020057 80 21 0.0 0.9 0.00 0.00 0.00 56 1007.1
20260507015556 80 10 0.9 0.9 0.00 0.00 0.00 54 1007.1
20260507015053 80 14 0.9 0.9 0.00 0.00 0.00 54 1007.1
20260507014549 80 11 0.9 0.9 0.00 0.00 0.00 53 1007.0
20260507014045 80 11 0.9 1.7 0.00 0.00 0.00 54 1007.0
20260507013542 80 30 0.0 0.9 0.00 0.00 0.00 53 1006.6
20260507013039 80 28 0.9 1.7 0.00 0.00 0.00 54 1006.7
20260507012536 80 29 0.9 0.9 0.00 0.00 0.00 53 1006.5
20260507012032 80 30 0.0 0.0 0.00 0.00 0.00 53 1006.5
20260507011530 80 30 0.0 0.9 0.00 0.00 0.00 53 1006.4
20260507011026 80 30 0.0 0.9 0.00 0.00 0.00 53 1006.6
20260507010520 81 45 0.9 1.7 0.00 0.00 0.00 53 1006.5
20260507010017 81 47 0.9 1.7 0.00 0.00 0.00 53 1006.2
20260507005515 81 44 0.9 0.9 0.00 0.00 0.00 52 1006.2
20260507005011 81 45 0.0 0.9 0.00 0.00 0.00 52 1006.4
20260507004508 81 48 0.0 0.9 0.00 0.00 0.00 52 1006.4
20260507004006 81 49 0.9 0.9 0.00 0.00 0.00 52 1006.5
20260507003501 81 38 0.0 0.9 0.00 0.00 0.00 51 1006.5
20260507002955 81 26 0.0 0.0 0.00 0.00 0.00 52 1006.6
20260507002453 82 21 0.0 0.9 0.00 0.00 0.00 51 1006.6
20260507001949 82 23 0.9 0.9 0.00 0.00 0.00 51 1006.8
20260507001446 82 33 0.9 0.9 0.00 0.00 0.00 50 1006.7
20260507000943 82 33 0.9 1.7 0.00 0.00 0.00 50 1006.8
20260507000439 82 16 0.9 1.7 0.00 0.00 0.00 50 1006.5
20260506235934 83 47 0.9 1.7 0.00 0.00 0.00 49 1006.5
20260506235432 83 59 0.0 0.9 0.00 0.00 0.00 49 1006.4